Location: Waldport
(44.4270°N, 124.0680°W)
Time: 05:17:55
(UTC-07:00)

Amateur Radio Satellites - All Passes

Search period start: 28 March 2015 04:47
Search period end: 29 March 2015 04:47
Location: Waldport, 44.4270°N, 124.0680°W

Satellite Date Start Highest point End Downlink Frequencies (MHz)
Time Altitude Azimuth
AIST 1 28 Mar 04:50:51 04:55:10 56° 95° (E) 04:59:30
SO-50 28 Mar 04:51:16 04:56:13 73° 238° (WSW) 05:01:07 436.795
Oscar 19 28 Mar 04:53:24 04:55:06 11° 303° (WNW) 04:56:32 437.125/150
Gurwin Techsat 1B 28 Mar 04:53:51 04:58:40 35° 293° (WNW) 05:03:25 435.225
RS-15 28 Mar 05:00:13 05:11:45 90° 66° (ENE) 05:23:48 29.354- 29.394
HORYU 2 28 Mar 05:02:26 05:06:58 88° 104° (ESE) 05:11:29 437.375
ISS 28 Mar 05:48:56 05:52:10 79° 28° (NNE) 05:55:24 145.825
AUBIESAT-1 28 Mar 05:56:26 06:00:19 48° 256° (WSW) 06:04:33 437.475
PRISM 28 Mar 05:58:11 06:01:13 20° 65° (ENE) 06:04:22 437.425
MOZHAYETS 4 28 Mar 06:01:59 06:06:00 28° 266° (W) 06:10:00
CUBESAT XI-V 28 Mar 06:07:36 06:11:42 31° 68° (ENE) 06:15:52 437.345
GONETS M04 28 Mar 06:12:12 06:19:52 33° 66° (ENE) 06:27:41
STRAND 1 28 Mar 06:20:13 06:24:25 27° 65° (ENE) 06:28:45 437.568
M-CUBED/EXP-1 PRIME 28 Mar 06:20:28 06:23:47 24° 263° (W) 06:27:16 437.505
Cubesat XI-IV 28 Mar 06:24:40 06:27:43 16° 88° (E) 06:30:59 437.490
CUTE-I 28 Mar 06:24:57 06:27:57 16° 88° (E) 06:31:12 437.470
JAS-2 28 Mar 06:26:07 06:33:45 55° 292° (WNW) 06:40:49 435.910
O/OREOS (USA 219) 28 Mar 06:26:52 06:30:35 23° 307° (NW) 06:34:14 437.305
AIST 1 28 Mar 06:30:41 06:33:17 15° 294° (WNW) 06:35:44
AO-7 28 Mar 06:37:14 06:45:15 54° 296° (WNW) 06:53:12 29.400- 29.500
VERMONT LUNAR 28 Mar 06:38:19 06:40:37 17° 156° (SSE) 06:42:57 437.305
HORYU 2 28 Mar 06:41:22 06:43:01 12° 300° (WNW) 06:44:28 437.375
PHONESAT 2.4 28 Mar 07:07:32 07:09:30 15° 153° (SSE) 07:11:34 2401.200-2431.200
RS-15 28 Mar 07:13:57 07:23:01 26° 256° (WSW) 07:31:51 29.354- 29.394
ISS 28 Mar 07:26:18 07:28:13 15° 226° (SW) 07:30:03 145.825
DANDE 28 Mar 07:26:36 07:27:02 10° 69° (ENE) 07:27:45 436.750
PRISM 28 Mar 07:32:27 07:36:28 41° 262° (W) 07:40:29 437.425
CUBESAT XI-V 28 Mar 07:44:56 07:49:08 31° 266° (W) 07:53:18 437.345
STRAND 1 28 Mar 07:58:34 08:03:27 42° 262° (W) 08:08:21 437.568
Cubesat XI-IV 28 Mar 08:03:08 08:08:28 72° 287° (WNW) 08:13:46 437.490
CUTE-I 28 Mar 08:03:22 08:08:42 72° 287° (WNW) 08:13:59 437.470
GONETS M04 28 Mar 08:08:41 08:17:21 62° 268° (W) 08:25:57
JAS-2 28 Mar 08:13:32 08:17:12 14° 311° (NW) 08:20:24 435.910
VERMONT LUNAR 28 Mar 08:14:44 08:17:52 38° 172° (S) 08:21:01 437.305
CUSAT 1 28 Mar 08:25:17 08:29:14 60° 78° (ENE) 08:34:32 437.405
AO-7 28 Mar 08:32:16 08:36:22 14° 318° (NW) 08:40:06 29.400- 29.500
PHONESAT 2.4 28 Mar 08:44:04 08:47:19 36° 169° (SSE) 08:50:37 2401.200-2431.200
DOVE 4 28 Mar 08:57:24 08:57:43 10° 87° (E) 08:58:18 437.250
GOMX 1 28 Mar 09:00:14 09:02:55 17° 91° (E) 09:05:50 467.674
DANDE 28 Mar 09:06:40 09:10:25 67° 261° (W) 09:15:28 436.750
COMPASS 1 28 Mar 09:06:46 09:07:50 11° 86° (E) 09:09:08 437.405
CANX-2 28 Mar 09:30:25 09:34:17 32° 95° (E) 09:38:12 2200.000
BRITE-PL 28 Mar 09:43:58 09:48:09 73° 102° (ESE) 09:52:28 437.365/2234.400
CUTE 1.7 + AOD 2 28 Mar 09:44:25 09:48:30 41° 97° (E) 09:52:36 437.475
Cubesat XI-IV 28 Mar 09:45:54 09:47:45 11° 304° (NW) 09:49:19 437.490
CUTE-I 28 Mar 09:46:06 09:47:57 12° 304° (NW) 09:49:32 437.470
HO-68 28 Mar 09:49:33 09:56:34 52° 100° (E) 10:03:34 435.675
VERMONT LUNAR 28 Mar 09:52:09 09:55:17 37° 189° (S) 09:58:27 437.305
UNISAT 6 28 Mar 09:56:26 09:59:21 19° 65° (ENE) 10:02:25 437.425
POPSAT HIP 1 28 Mar 09:59:52 10:00:42 11° 61° (ENE) 10:01:45 437.405
DELFI C3 28 Mar 10:02:38 10:04:45 14° 89° (E) 10:07:03 145.870
TIGRISAT 28 Mar 10:06:51 10:10:09 23° 66° (ENE) 10:13:34 435.000
NANOSAT C BR1 28 Mar 10:09:44 10:11:45 14° 63° (ENE) 10:13:57 145.865
GONETS M04 28 Mar 10:09:45 10:12:31 11° 287° (WNW) 10:14:34
CUSAT 1 28 Mar 10:09:47 10:12:01 13° 266° (W) 10:14:16 437.405
POLYITAN 1 28 Mar 10:12:29 10:14:47 15° 63° (ENE) 10:17:15 437.675
AAUSAT CUBESAT 2 28 Mar 10:13:47 10:17:56 51° 99° (E) 10:22:04 437.432
SEEDS 28 Mar 10:15:26 10:19:46 76° 103° (ESE) 10:24:03 437.485
CINEMA 3 28 Mar 10:20:34 10:24:44 42° 98° (E) 10:29:05 145.822/145.860
PHONESAT 2.4 28 Mar 10:22:00 10:25:22 42° 186° (S) 10:28:45 2401.200-2431.200
Oscar 11 28 Mar 10:29:47 10:33:49 36° 97° (E) 10:37:53 145.826/435.025
DOVE 4 28 Mar 10:31:48 10:36:06 78° 283° (WNW) 10:40:34 437.250
ANTELSAT 28 Mar 10:35:35 10:39:38 45° 72° (ENE) 10:43:48 437.575/2403.000
GOMX 1 28 Mar 10:37:19 10:41:22 46° 287° (WNW) 10:45:35 467.674
FUNcube-1 28 Mar 10:38:02 10:41:34 24° 94° (E) 10:45:13 145.935
UWE-3 28 Mar 10:38:44 10:42:36 30° 95° (E) 10:46:37 435.000/436.395/437.385
COMPASS 1 28 Mar 10:39:51 10:44:07 72° 285° (WNW) 10:48:20 437.405
CUBEBUG 2 28 Mar 10:40:58 10:45:05 38° 97° (E) 10:49:19 437.445
QB50P1 28 Mar 10:48:50 10:52:37 33° 70° (ENE) 10:56:26 145.935-145.965
AISAT 28 Mar 10:50:02 10:50:42 10° 86° (E) 10:51:40 437.250
ZACube-1 28 Mar 10:50:08 10:54:04 32° 96° (E) 10:58:06 437.345
DUCHIFAT 1 28 Mar 10:51:24 10:55:12 34° 70° (ENE) 10:59:02 145.980
BEESAT 2 28 Mar 10:51:54 10:55:23 27° 116° (ESE) 10:58:59 435.950
QB50P2 28 Mar 11:02:54 11:06:57 47° 72° (ENE) 11:11:03 145.880/145.840
CANX-2 28 Mar 11:06:33 11:10:08 25° 292° (WNW) 11:13:38 2200.000
ESTCUBE 1 28 Mar 11:15:41 11:16:03 10° 86° (E) 11:16:43 437.505/2401.250
50 SAT 28 Mar 11:16:19 11:19:17 20° 92° (E) 11:22:21 437.505
CUTE 1.7 + AOD 2 28 Mar 11:20:58 11:24:12 20° 294° (WNW) 11:27:19 437.475
BRITE-PL 28 Mar 11:24:47 11:26:15 11° 298° (WNW) 11:27:33 437.365/2234.400
BEESAT 3 28 Mar 11:29:43 11:33:49 79° 123° (ESE) 11:37:59 437.485
VERMONT LUNAR 28 Mar 11:30:19 11:32:32 16° 205° (SSW) 11:34:43 437.305
UNISAT 6 28 Mar 11:31:46 11:35:51 45° 261° (W) 11:40:01 437.425
POPSAT HIP 1 28 Mar 11:31:47 11:36:01 85° 260° (W) 11:40:16 437.405
UKube-1 28 Mar 11:35:36 11:39:56 68° 102° (ESE) 11:44:14 .
DELFI C3 28 Mar 11:36:18 11:40:19 52° 287° (WNW) 11:44:18 145.870
BUGSAT 1 28 Mar 11:37:30 11:41:41 82° 76° (ENE) 11:45:50 437.445
HO-68 28 Mar 11:37:41 11:44:05 35° 299° (WNW) 11:50:21 435.675
TIGRISAT 28 Mar 11:42:50 11:46:45 35° 264° (W) 11:50:43 435.000
NANOSAT C BR1 28 Mar 11:42:59 11:47:10 64° 259° (W) 11:51:22 145.865
DX 1 28 Mar 11:44:11 11:48:33 89° 104° (ESE) 11:52:53 434.975-435.025
POLYITAN 1 28 Mar 11:46:09 11:50:19 57° 259° (W) 11:54:29 437.675
AAUSAT CUBESAT 2 28 Mar 11:50:29 11:53:14 16° 295° (WNW) 11:55:49 437.432
HUMSAT D 28 Mar 11:50:36 11:54:52 74° 102° (ESE) 11:59:08 437.325/437.525
SEEDS 28 Mar 11:53:15 11:55:02 12° 298° (WNW) 11:56:37 437.485
AIST 2 28 Mar 11:56:15 12:00:19 45° 119° (ESE) 12:04:27 435.215
CINEMA 3 28 Mar 11:58:28 12:01:45 21° 293° (WNW) 12:05:01 145.822/145.860
PHONESAT 2.4 28 Mar 12:00:31 12:03:18 22° 202° (SSW) 12:06:06 2401.200-2431.200
Oscar 11 28 Mar 12:06:21 12:09:51 23° 293° (WNW) 12:13:14 145.826/435.025
ANTELSAT 28 Mar 12:13:51 12:16:45 17° 270° (W) 12:19:34 437.575/2403.000
FUNcube-1 28 Mar 12:14:02 12:17:59 34° 290° (WNW) 12:21:59 145.935
UWE-3 28 Mar 12:15:22 12:19:07 28° 291° (WNW) 12:22:52 435.000/436.395/437.385
CUBEBUG 2 28 Mar 12:18:09 12:21:37 23° 293° (WNW) 12:25:03 437.445
VELOX 1 28 Mar 12:19:24 12:23:50 89° 285° (WNW) 12:28:14 145.980
CUBEBUG 1 28 Mar 12:23:02 12:27:13 46° 99° (E) 12:31:23 437.445
AISAT 28 Mar 12:23:33 12:27:59 79° 285° (WNW) 12:32:23 437.250
QB50P1 28 Mar 12:25:10 12:28:35 23° 267° (W) 12:31:55 145.935-145.965
ZACube-1 28 Mar 12:26:43 12:30:21 26° 292° (WNW) 12:33:59 437.345
DUCHIFAT 1 28 Mar 12:27:49 12:31:09 22° 267° (W) 12:34:24 145.980
BEESAT 2 28 Mar 12:29:40 12:33:28 34° 314° (NW) 12:37:18 435.950
TISAT 1 28 Mar 12:32:14 12:34:05 13° 89° (E) 12:36:09 437.305
SPROUT 28 Mar 12:37:28 12:40:24 18° 91° (E) 12:43:27 437.525
QB50P2 28 Mar 12:40:27 12:43:12 16° 270° (W) 12:45:46 145.880/145.840
ESTCUBE 1 28 Mar 12:49:07 12:53:40 84° 284° (WNW) 12:58:10 437.505/2401.250
50 SAT 28 Mar 12:50:38 12:54:20 35° 289° (WNW) 12:58:01 437.505
Oscar 19 28 Mar 12:51:51 12:55:59 26° 65° (ENE) 13:00:14 437.125/150
YUBILEINY 28 Mar 13:04:07 13:10:10 22° 80° (E) 13:16:37 435.215
BEESAT 3 28 Mar 13:09:43 13:12:26 16° 323° (NW) 13:15:04 437.485
UKube-1 28 Mar 13:13:22 13:15:36 14° 299° (WNW) 13:17:39 .
O/OREOS (USA 219) 28 Mar 13:16:40 13:19:20 15° 48° (NE) 13:22:07 437.305
DX 1 28 Mar 13:23:02 13:24:12 11° 300° (WNW) 13:25:08 434.975-435.025
HUMSAT D 28 Mar 13:28:19 13:30:08 12° 298° (WNW) 13:31:46 437.325/437.525
AIST 2 28 Mar 13:35:33 13:39:08 25° 318° (NW) 13:42:41 435.215
ITUPSAT 1 28 Mar 13:36:20 13:37:15 11° 86° (E) 13:38:28 437.325
ITAMSAT 1 28 Mar 13:54:23 13:58:58 33° 67° (ENE) 14:03:38 435.822/435.867
AO-7 28 Mar 13:57:41 14:01:57 16° 44° (NE) 14:06:34 29.400- 29.500
VELOX 1 28 Mar 13:58:37 13:59:46 11° 301° (WNW) 14:00:42 145.980
CUBEBUG 1 28 Mar 14:00:15 14:03:18 18° 295° (WNW) 14:06:13 437.445
TISAT 1 28 Mar 14:06:12 14:10:21 59° 287° (WNW) 14:14:28 437.305
PCSat 28 Mar 14:12:29 14:13:29 11° 103° (ESE) 14:14:49 145.827
SPROUT 28 Mar 14:12:40 14:16:45 43° 289° (WNW) 14:20:47 437.525
SWISSCUBE 28 Mar 14:22:00 14:26:21 34° 96° (E) 14:30:43 437.505
BEESAT 28 Mar 14:25:10 14:29:31 34° 96° (E) 14:33:52 436.000
ESTCUBE 1 28 Mar 14:28:56 14:29:51 10° 301° (WNW) 14:30:33 437.505/2401.250
HORYU 2 28 Mar 14:29:04 14:30:39 12° 60° (ENE) 14:32:26 437.375
Oscar 19 28 Mar 14:30:18 14:35:09 43° 262° (W) 14:40:02 437.125/150
Gurwin Techsat 1B 28 Mar 14:36:30 14:41:43 61° 72° (ENE) 14:46:59 435.225
KKS-1 28 Mar 14:52:05 14:53:40 12° 88° (E) 14:55:29 437.445
O/OREOS (USA 219) 28 Mar 14:54:48 14:59:22 73° 249° (WSW) 15:03:51 437.305
JAS-2 28 Mar 14:56:13 15:01:04 21° 55° (NE) 15:06:27 435.910
YUBILEINY 28 Mar 14:57:12 15:06:03 83° 280° (W) 15:14:57 435.215
AIST 1 28 Mar 14:57:21 15:00:10 17° 68° (ENE) 15:03:05
ITUPSAT 1 28 Mar 15:11:06 15:15:57 88° 285° (WNW) 15:20:44 437.325
STARS 28 Mar 15:25:26 15:28:19 17° 91° (E) 15:31:21 437.465
ITAMSAT 1 28 Mar 15:33:42 15:38:27 35° 264° (W) 15:43:12 435.822/435.867
AO-7 28 Mar 15:45:09 15:53:13 59° 65° (ENE) 16:01:20 29.400- 29.500
PCSat 28 Mar 15:50:42 15:56:06 77° 119° (ESE) 16:01:34 145.827
SWISSCUBE 28 Mar 16:00:01 16:04:09 29° 293° (WNW) 16:08:11 437.505
HORYU 2 28 Mar 16:02:17 16:06:43 83° 257° (WSW) 16:11:12 437.375
BEESAT 28 Mar 16:03:09 16:07:17 29° 293° (WNW) 16:11:21 436.000
Gurwin Techsat 1B 28 Mar 16:18:25 16:22:11 19° 271° (W) 16:25:48 435.225
KKS-1 28 Mar 16:26:27 16:30:54 71° 287° (WNW) 16:35:19 437.445
AIST 1 28 Mar 16:34:01 16:38:09 45° 267° (W) 16:42:14
JAS-2 28 Mar 16:38:09 16:45:03 86° 75° (ENE) 16:52:46 435.910
ITUPSAT 1 28 Mar 16:51:13 16:53:10 12° 301° (WNW) 16:54:53 437.325
YUBILEINY 28 Mar 16:58:22 17:04:33 20° 303° (WNW) 17:10:24 435.215
STARS 28 Mar 17:00:52 17:05:07 48° 289° (WNW) 17:09:20 437.465
PCSat 28 Mar 17:35:59 17:40:11 22° 320° (NW) 17:44:18 145.827
AUBIESAT-1 28 Mar 17:37:37 17:39:42 13° 91° (E) 17:42:02 437.475
AO-7 28 Mar 17:39:04 17:46:29 34° 265° (W) 17:53:46 29.400- 29.500
Cubesat XI-IV 28 Mar 17:47:45 17:52:25 32° 66° (ENE) 17:57:09 437.490
CUTE-I 28 Mar 17:47:52 17:52:30 31° 66° (ENE) 17:57:13 437.470
MOZHAYETS 4 28 Mar 17:54:39 17:59:17 61° 100° (E) 18:03:53
M-CUBED/EXP-1 PRIME 28 Mar 17:59:53 18:03:48 24° 97° (E) 18:07:45 437.505
BEESAT 3 28 Mar 18:10:35 18:12:45 14° 34° (NE) 18:14:59 437.485
JAS-2 28 Mar 18:26:18 18:31:16 19° 277° (W) 18:36:13 435.910
HO-68 28 Mar 18:39:19 18:40:19 10° 45° (NE) 18:41:42 435.675
AIST 2 28 Mar 18:39:57 18:41:02 11° 29° (NNE) 18:42:14 435.215
SO-50 28 Mar 19:08:00 19:11:45 25° 114° (ESE) 19:15:41 436.795
BEESAT 2 28 Mar 19:09:28 19:13:13 32° 46° (NE) 19:16:57 435.950
AUBIESAT-1 28 Mar 19:10:17 19:15:10 81° 290° (WNW) 19:19:56 437.475
PRISM 28 Mar 19:13:47 19:17:09 24° 94° (E) 19:20:33 437.425
GONETS M04 28 Mar 19:16:04 19:23:27 34° 85° (E) 19:31:05
BRITE-PL 28 Mar 19:21:27 19:23:04 12° 63° (ENE) 19:24:53 437.365/2234.400
RS-15 28 Mar 19:25:59 19:36:09 49° 112° (ESE) 19:46:36 29.354- 29.394
Cubesat XI-IV 28 Mar 19:27:27 19:32:27 38° 263° (W) 19:37:25 437.490
CUTE-I 28 Mar 19:27:31 19:32:30 38° 263° (W) 19:37:29 437.470
MOZHAYETS 4 28 Mar 19:33:05 19:36:06 17° 297° (WNW) 19:38:57
M-CUBED/EXP-1 PRIME 28 Mar 19:34:13 19:38:51 44° 295° (WNW) 19:43:24 437.505
CUBESAT XI-V 28 Mar 19:39:23 19:43:59 59° 100° (E) 19:48:32 437.345
BEESAT 3 28 Mar 19:47:22 19:51:31 81° 55° (NE) 19:55:35 437.485
COMPASS 1 28 Mar 20:00:56 20:01:40 11° 61° (ENE) 20:02:38 437.405
DOVE 4 28 Mar 20:04:19 20:06:20 14° 64° (ENE) 20:08:31 437.250
STRAND 1 28 Mar 20:07:05 20:12:08 57° 100° (E) 20:17:09 437.568
GOMX 1 28 Mar 20:10:16 20:13:43 23° 68° (ENE) 20:17:07 467.674
AIST 2 28 Mar 20:16:30 20:20:40 51° 50° (NE) 20:24:47 435.215
HO-68 28 Mar 20:19:43 20:26:27 47° 65° (ENE) 20:33:17 435.675
CANX-2 28 Mar 20:25:14 20:28:52 29° 69° (ENE) 20:32:35 2200.000
CUTE 1.7 + AOD 2 28 Mar 20:39:00 20:42:53 36° 70° (ENE) 20:46:50 437.475
AUBIESAT-1 28 Mar 20:47:01 20:49:16 13° 306° (NW) 20:51:20 437.475
SO-50 28 Mar 20:47:34 20:52:04 46° 312° (NW) 20:56:44 436.795
BEESAT 2 28 Mar 20:47:41 20:51:20 30° 244° (WSW) 20:54:53 435.950
PRISM 28 Mar 20:48:57 20:52:42 32° 291° (WNW) 20:56:23 437.425
DELFI C3 28 Mar 20:53:10 20:54:44 12° 63° (ENE) 20:56:29 145.870
BRITE-PL 28 Mar 20:56:27 21:01:12 80° 259° (W) 21:05:37 437.365/2234.400
AAUSAT CUBESAT 2 28 Mar 21:06:19 21:10:15 42° 72° (ENE) 21:14:16 437.432
DX 1 28 Mar 21:08:41 21:09:55 11° 60° (ENE) 21:11:22 434.975-435.025
SEEDS 28 Mar 21:09:03 21:13:12 65° 74° (ENE) 21:17:25 437.485
GONETS M04 28 Mar 21:11:25 21:19:57 57° 285° (WNW) 21:28:32
CUBESAT XI-V 28 Mar 21:17:59 21:21:01 17° 297° (WNW) 21:23:53 437.345
CINEMA 3 28 Mar 21:24:24 21:28:24 45° 72° (ENE) 21:32:24 145.822/145.860
Oscar 11 28 Mar 21:26:13 21:30:08 35° 70° (ENE) 21:34:06 145.826/435.025
BEESAT 3 28 Mar 21:28:04 21:29:00 10° 251° (WSW) 21:29:43 437.485
COMPASS 1 28 Mar 21:32:35 21:36:46 85° 257° (WSW) 21:41:01 437.405
FUNcube-1 28 Mar 21:36:06 21:39:18 23° 67° (ENE) 21:42:37 145.935
RS-15 28 Mar 21:37:48 21:48:29 56° 317° (NW) 21:59:27 29.354- 29.394
UWE-3 28 Mar 21:38:04 21:41:38 29° 69° (ENE) 21:45:17 435.000/436.395/437.385
CUSAT 1 28 Mar 21:38:29 21:41:17 54° 99° (E) 21:43:51 437.405
DOVE 4 28 Mar 21:39:26 21:43:45 63° 259° (W) 21:47:56 437.250
CUBEBUG 2 28 Mar 21:41:18 21:45:08 38° 71° (ENE) 21:49:00 437.445
VELOX 1 28 Mar 21:45:21 21:46:58 12° 61° (ENE) 21:48:47 145.980
STRAND 1 28 Mar 21:47:12 21:50:58 21° 298° (WNW) 21:54:36 437.568
GOMX 1 28 Mar 21:47:36 21:51:46 35° 263° (W) 21:55:42 467.674
ZACube-1 28 Mar 21:48:14 21:51:50 30° 69° (ENE) 21:55:32 437.345
AISAT 28 Mar 21:49:10 21:51:16 14° 61° (ENE) 21:53:33 437.250
AIST 2 28 Mar 21:55:57 21:58:56 18° 248° (WSW) 22:01:47 435.215
CANX-2 28 Mar 22:01:10 22:04:49 27° 266° (W) 22:08:25 2200.000
50 SAT 28 Mar 22:04:57 22:07:17 16° 65° (ENE) 22:09:45 437.505
HO-68 28 Mar 22:07:45 22:14:20 38° 264° (W) 22:20:54 435.675
CUTE 1.7 + AOD 2 28 Mar 22:15:40 22:18:58 21° 268° (W) 22:22:12 437.475
ESTCUBE 1 28 Mar 22:16:15 22:18:24 14° 61° (ENE) 22:20:44 437.505/2401.250
DANDE 28 Mar 22:23:41 22:26:35 39° 282° (WNW) 22:29:08 436.750
DELFI C3 28 Mar 22:25:22 22:29:25 68° 258° (WSW) 22:33:31 145.870
UKube-1 28 Mar 22:31:57 22:36:16 72° 74° (ENE) 22:40:37 .
SO-50 28 Mar 22:31:57 22:33:55 12° 335° (NNW) 22:35:46 436.795
DX 1 28 Mar 22:41:12 22:45:35 86° 254° (WSW) 22:49:58 434.975-435.025
AAUSAT CUBESAT 2 28 Mar 22:43:16 22:46:09 18° 270° (W) 22:48:57 437.432
HUMSAT D 28 Mar 22:44:09 22:48:11 63° 74° (ENE) 22:52:17 437.325/437.525
SEEDS 28 Mar 22:47:48 22:49:33 12° 273° (W) 22:51:06 437.485
PCSat 28 Mar 22:54:31 22:58:13 19° 37° (NE) 23:02:02 145.827
Oscar 11 28 Mar 23:02:58 23:06:26 23° 268° (W) 23:09:50 145.826/435.025
CINEMA 3 28 Mar 23:03:16 23:05:57 16° 270° (W) 23:08:28 145.822/145.860
FUNcube-1 28 Mar 23:11:46 23:15:31 33° 264° (W) 23:19:18 145.935
YUBILEINY 28 Mar 23:11:53 23:14:36 12° 48° (NE) 23:17:56 435.215
UWE-3 28 Mar 23:14:45 23:18:13 25° 266° (W) 23:21:39 435.000/436.395/437.385
GONETS M04 28 Mar 23:15:53 23:19:24 12° 311° (NW) 23:22:21
POPSAT HIP 1 28 Mar 23:16:58 23:19:07 14° 89° (E) 23:21:26 437.405
VELOX 1 28 Mar 23:18:31 23:22:58 82° 257° (WSW) 23:27:26 145.980
CUBEBUG 2 28 Mar 23:19:00 23:22:03 19° 269° (W) 23:25:00 437.445
CUBEBUG 1 28 Mar 23:20:40 23:24:55 48° 72° (ENE) 23:29:11 437.445
UNISAT 6 28 Mar 23:21:47 23:25:53 32° 96° (E) 23:30:05 437.425
AISAT 28 Mar 23:22:56 23:27:23 72° 258° (WSW) 23:31:50 437.250
ZACube-1 28 Mar 23:24:52 23:28:17 24° 267° (W) 23:31:39 437.345
TISAT 1 28 Mar 23:26:41 23:28:43 14° 63° (ENE) 23:30:55 437.305
NANOSAT C BR1 28 Mar 23:27:17 23:30:09 18° 91° (E) 23:33:08 145.865
POLYITAN 1 28 Mar 23:30:44 23:33:51 20° 92° (E) 23:37:04 437.675
TIGRISAT 28 Mar 23:32:14 23:36:31 40° 98° (E) 23:40:53 435.000
SPROUT 28 Mar 23:33:41 23:36:38 19° 65° (ENE) 23:39:41 437.525
50 SAT 28 Mar 23:38:08 23:41:53 45° 261° (W) 23:45:42 437.505
ESTCUBE 1 28 Mar 23:50:11 23:54:45 75° 259° (W) 23:59:20 437.505/2401.250
RS-15 28 Mar 23:54:56 00:04:03 28° 348° (NNW) 00:13:22 29.354- 29.394
ANTELSAT 29 Mar 00:02:01 00:06:37 83° 104° (ESE) 00:11:17 437.575/2403.000
ISS 29 Mar 00:04:56 00:08:10 65° 145° (SE) 00:11:24 145.825
QB50P1 29 Mar 00:07:42 00:11:49 49° 99° (E) 00:15:56 145.935-145.965
DUCHIFAT 1 29 Mar 00:09:56 00:14:02 50° 100° (E) 00:18:09 145.980
UKube-1 29 Mar 00:11:31 00:13:01 11° 272° (W) 00:14:16 .
QB50P2 29 Mar 00:22:14 00:26:29 73° 102° (ESE) 00:30:44 145.880/145.840
HUMSAT D 29 Mar 00:22:57 00:24:29 11° 273° (W) 00:25:48 437.325/437.525
PCSat 29 Mar 00:37:02 00:42:31 86° 57° (ENE) 00:47:57 145.827
ITUPSAT 1 29 Mar 00:43:51 00:46:51 17° 62° (ENE) 00:50:01 437.325
POPSAT HIP 1 29 Mar 00:51:16 00:55:25 55° 287° (WNW) 00:59:33 437.405
BUGSAT 1 29 Mar 00:53:39 00:57:41 71° 285° (WNW) 01:01:41 437.445
CUBEBUG 1 29 Mar 00:58:37 01:01:37 17° 270° (W) 01:04:27 437.445
UNISAT 6 29 Mar 00:58:41 01:02:37 28° 292° (WNW) 01:06:32 437.425
TISAT 1 29 Mar 00:59:53 01:04:04 64° 259° (WSW) 01:08:16 437.305
NANOSAT C BR1 29 Mar 01:02:15 01:06:16 42° 289° (WNW) 01:10:15 145.865
YUBILEINY 29 Mar 01:05:30 01:14:09 55° 74° (ENE) 01:22:43 435.215
POLYITAN 1 29 Mar 01:06:00 01:09:58 38° 289° (WNW) 01:13:53 437.675
SPROUT 29 Mar 01:08:19 01:12:27 45° 261° (W) 01:16:35 437.525
TIGRISAT 29 Mar 01:09:27 01:13:04 23° 294° (WNW) 01:16:40 435.000
SWISSCUBE 29 Mar 01:30:04 01:34:41 48° 71° (ENE) 01:39:20 437.505
BEESAT 29 Mar 01:33:10 01:37:44 47° 71° (ENE) 01:42:23 436.000
ANTELSAT 29 Mar 01:40:49 01:42:51 13° 299° (WNW) 01:44:42 437.575/2403.000
ISS 29 Mar 01:41:50 01:44:46 30° 344° (NNW) 01:47:41 145.825
QB50P1 29 Mar 01:44:34 01:47:22 17° 296° (WNW) 01:50:03 145.935-145.965
DUCHIFAT 1 29 Mar 01:46:49 01:49:32 16° 296° (WNW) 01:52:08 145.980
KKS-1 29 Mar 01:51:56 01:54:21 15° 62° (ENE) 01:56:57 437.445
SO-50 29 Mar 01:58:09 01:59:44 11° 24° (NNE) 02:01:27 436.795
QB50P2 29 Mar 02:00:04 02:01:53 12° 298° (WNW) 02:03:32 145.880/145.840
RS-15 29 Mar 02:11:10 02:20:54 32° 22° (NNE) 02:31:09 29.354- 29.394
ITUPSAT 1 29 Mar 02:19:31 02:24:19 64° 259° (W) 02:29:08 437.325
PCSat 29 Mar 02:22:23 02:25:16 14° 255° (WSW) 02:27:54 145.827
STARS 29 Mar 02:24:17 02:27:25 20° 65° (ENE) 02:30:41 437.465
Oscar 19 29 Mar 02:39:43 02:44:50 59° 100° (E) 02:49:57 437.125/150
Gurwin Techsat 1B 29 Mar 02:51:47 02:55:42 21° 91° (E) 02:59:45 435.225
YUBILEINY 29 Mar 03:02:52 03:10:40 36° 275° (W) 03:18:16 435.215
SWISSCUBE 29 Mar 03:09:13 03:12:51 20° 269° (W) 03:16:21 437.505
BEESAT 29 Mar 03:12:16 03:15:53 20° 269° (W) 03:19:24 436.000
ISS 29 Mar 03:19:11 03:21:50 22° 4° (N) 03:24:29 145.825
KKS-1 29 Mar 03:26:09 03:30:33 64° 258° (WSW) 03:34:58 437.445
O/OREOS (USA 219) 29 Mar 03:33:28 03:34:06 10° 98° (E) 03:35:01 437.305
SO-50 29 Mar 03:37:00 03:41:41 40° 46° (NE) 03:46:21 436.795
ITAMSAT 1 29 Mar 03:44:12 03:49:25 74° 104° (ESE) 03:54:34 435.822/435.867
AO-7 29 Mar 03:46:56 03:51:04 15° 85° (E) 03:55:46 29.400- 29.500
JAS-2 29 Mar 03:48:48 03:52:16 14° 79° (E) 03:56:07 435.910
HORYU 2 29 Mar 03:53:02 03:55:56 17° 90° (E) 03:58:59 437.375
STARS 29 Mar 03:59:27 04:03:38 43° 261° (W) 04:07:50 437.465
Oscar 19 29 Mar 04:20:01 04:23:49 20° 298° (WNW) 04:27:29 437.125/150
AUBIESAT-1 29 Mar 04:26:49 04:29:48 20° 58° (ENE) 04:33:04 437.475
Gurwin Techsat 1B 29 Mar 04:30:52 04:36:05 54° 289° (WNW) 04:41:14 435.225
